Back to catalog

NOAA 11 DEB

AliveSSO
NORAD 37241·DEBRIS·🇺🇸 United States

Launched Sep 24, 1988 from Vandenberg Space Force Base

Loading…

Next Passes (next 24 hours)

TLE

FreshSource: Space-Track

Epoch: Sep 14, 2026, 10:21 UTC

1 37241U 88089D   26257.43172106  .00000504  00000-0  21895-3 0  9993
2 37241  98.9695  76.5814 0020244 308.7540  51.1831 14.28650596965202

Track NOAA 11 DEB in real time with AllMySat

Download on the App Store